PBO Station Position Time Series. Reference Frame : NAM14
Format Version,1.1.0
4-character ID,P583
Station name,KramerJnctCS2005
Begin Date, 2005-11-04
End Date, 2019-10-07
Release Date, 2019-10-08
Reference position, 34.9870039576 North Latitude, -117.5433933845 East Longitude, 730.75267 meters elevation,
Date, North (mm), East (mm), Vertical (mm), North Std. Deviation (mm), East Std. Deviation (mm),              Vertical Std. Deviation (mm), Quality,
2005-11-04,0.00, 0.00, 0.00, 2.10, 1.81, 7.86, repro,
2005-11-05,1.18, -0.19, -1.67, 2.09, 1.82, 7.91, repro,
2005-11-06,0.14, -0.15, -1.63, 2.09, 1.82, 7.90, repro,
2005-11-07,0.31, -1.15, -0.24, 2.09, 1.82, 7.94, repro,
2005-11-08,0.45, -0.31, 0.28, 2.08, 1.81, 7.87, repro,
2005-11-09,1.55, 0.62, -3.78, 2.12, 1.86, 8.03, repro,
2005-11-10,-0.40, -1.01, -5.06, 2.31, 1.96, 8.81, repro,
2005-11-11,1.71, -1.65, 2.36, 2.26, 1.88, 8.49, repro,
2005-11-12,0.21, -1.17, 1.40, 1.96, 1.68, 7.36, repro,
2005-11-13,0.46, -0.27, -2.29, 2.19, 1.86, 8.20, repro,
2005-11-14,0.56, -1.18, -4.35, 2.06, 1.73, 7.63, repro,
2005-11-15,0.34, -1.22, -6.22, 2.03, 1.68, 7.64, repro,
2005-11-16,0.71, -0.48, -9.39, 2.06, 1.72, 7.70, repro,
2005-11-17,0.23, -0.94, -7.38, 1.98, 1.63, 7.36, repro,
2005-11-18,0.77, -0.95, -5.94, 1.97, 1.62, 7.35, repro,
2005-11-19,0.94, -0.47, -5.49, 1.97, 1.62, 7.36, repro,
2005-11-20,-0.25, -1.38, -6.02, 2.01, 1.66, 7.48, repro,
2005-11-21,-0.11, -2.65, -1.09, 2.09, 1.70, 7.89, repro,
2005-11-22,-0.55, -1.30, -4.56, 2.05, 1.74, 7.80, repro,
2005-11-23,-0.22, -0.76, -2.99, 2.01, 1.66, 7.48, repro,
2005-11-24,-0.02, -1.22, 0.72, 1.97, 1.63, 7.41, repro,
2005-11-25,0.35, -1.06, -0.16, 2.01, 1.68, 7.61, repro,
2005-11-26,-0.46, -3.38, 10.87, 2.09, 1.72, 7.84, repro,
2005-11-27,-0.20, -1.69, -2.19, 2.06, 1.72, 7.78, repro,
2005-11-28,0.29, 0.16, -9.03, 2.07, 1.74, 7.81, repro,
2005-11-29,-0.41, -2.66, -0.34, 2.01, 1.67, 7.50, repro,
2005-11-30,1.24, -2.76, -8.77, 2.01, 1.66, 7.51, repro,
2005-12-01,0.50, -1.16, -5.38, 2.04, 1.69, 7.65, repro,
2005-12-02,-0.35, -3.22, -16.31, 2.03, 1.66, 7.49, repro,
2005-12-03,-0.65, -1.19, -2.83, 2.02, 1.66, 7.50, repro,
2005-12-04,0.48, -0.94, -10.97, 2.01, 1.65, 7.43, repro,
2005-12-05,0.72, -0.81, -10.63, 2.00, 1.66, 7.48, repro,
2005-12-06,-0.42, -1.51, -4.82, 2.04, 1.67, 7.55, repro,
2005-12-07,-0.54, -1.38, -5.01, 2.04, 1.70, 7.62, repro,
2005-12-08,-0.70, -1.15, -5.98, 2.05, 1.71, 7.71, repro,
2005-12-09,0.13, -0.72, -7.87, 2.02, 1.67, 7.55, repro,
2005-12-10,0.49, -1.87, -4.38, 1.99, 1.65, 7.48, repro,
2005-12-11,-0.73, -1.40, -0.03, 1.99, 1.65, 7.41, repro,
2005-12-12,0.01, -1.06, -2.88, 1.97, 1.61, 7.33, repro,
2005-12-13,0.25, -1.11, -1.66, 1.98, 1.62, 7.36, repro,
2005-12-14,0.29, -0.99, -6.81, 2.02, 1.67, 7.53, repro,
2005-12-15,-0.09, -2.13, -8.78, 2.06, 1.68, 7.64, repro,
2005-12-16,0.01, -2.38, -1.37, 1.97, 1.62, 7.36, repro,
2005-12-17,-0.59, -1.81, 0.68, 2.10, 1.77, 7.76, repro,
2005-12-18,-0.40, -1.05, -4.63, 2.07, 1.78, 7.83, repro,
2005-12-19,0.64, -1.34, -6.47, 2.10, 1.78, 7.72, repro,
2005-12-20,1.38, -1.37, -8.69, 2.02, 1.75, 7.64, repro,
2005-12-21,0.84, -1.65, -5.14, 2.03, 1.75, 7.54, repro,
2005-12-22,0.68, -0.94, -0.64, 2.13, 1.85, 7.97, repro,
2005-12-23,0.88, -1.60, -2.87, 2.08, 1.75, 7.69, repro,
2005-12-24,0.16, -0.66, -2.76, 2.21, 1.86, 8.23, repro,
2005-12-25,-0.94, -2.51, 0.95, 2.11, 1.74, 7.87, repro,
2005-12-26,-1.39, -1.75, -2.75, 2.01, 1.66, 7.51, repro,
2005-12-27,0.49, -2.48, -5.47, 2.17, 1.82, 8.00, repro,
2005-12-28,0.38, -0.48, -0.99, 2.04, 1.71, 7.48, repro,
2005-12-29,0.97, -0.70, -3.76, 2.22, 1.90, 8.45, repro,
2005-12-30,-0.93, -1.65, 5.32, 2.29, 1.90, 8.54, repro,
2005-12-31,-0.72, -2.85, 0.64, 2.22, 1.89, 8.47, repro,
2006-01-01,0.12, -2.53, -3.25, 2.13, 1.77, 7.93, repro,
2006-01-02,-1.51, 0.68, 1.15, 2.04, 1.68, 7.52, repro,
2006-01-03,-0.32, -1.93, -3.57, 2.28, 1.95, 8.40, repro,
2006-01-04,1.33, -2.00, -8.49, 2.22, 1.96, 8.41, repro,
2006-01-05,0.24, -1.29, -6.20, 2.10, 1.78, 7.74, repro,
2006-01-06,0.12, -2.04, -6.90, 2.22, 1.86, 8.27, repro,
2006-01-07,0.65, -0.75, -0.41, 2.10, 1.78, 7.68, repro,
2006-01-08,0.23, -1.67, 3.70, 2.21, 1.89, 8.12, repro,
2006-01-09,0.84, -1.55, -3.49, 2.15, 1.81, 8.00, repro,
2006-01-10,0.75, -2.00, -2.00, 2.16, 1.82, 8.01, repro,
2006-01-11,0.78, -0.77, -1.92, 2.18, 1.80, 8.01, repro,
2006-01-12,0.47, -1.71, 1.79, 2.12, 1.79, 7.77, repro,
2006-01-13,0.23, -1.68, 0.22, 2.37, 2.05, 9.04, repro,
2006-01-14,-0.47, -1.67, -6.33, 2.09, 1.67, 7.57, repro,
2006-01-15,-0.28, -0.60, -1.34, 1.99, 1.64, 7.35, repro,
2006-01-16,1.00, -0.05, -3.72, 2.14, 1.82, 7.79, repro,
2006-01-17,0.06, -1.72, -5.01, 2.11, 1.78, 7.74, repro,
2006-01-18,2.20, -0.25, -3.20, 2.07, 1.72, 7.62, repro,
2006-01-19,-0.39, -0.12, -4.43, 2.06, 1.67, 7.63, repro,
2006-01-20,-0.69, -1.67, -6.87, 2.04, 1.64, 7.56, repro,
2006-01-21,0.29, -0.77, -4.26, 2.03, 1.65, 7.39, repro,
2006-01-22,0.37, -1.54, -7.68, 2.02, 1.61, 7.35, repro,
2006-01-23,0.85, -1.05, -1.17, 2.01, 1.61, 7.40, repro,
2006-01-24,-0.22, -1.75, 0.48, 2.03, 1.66, 7.60, repro,
2006-01-25,-0.06, -1.68, 0.87, 1.94, 1.59, 7.21, repro,
2006-01-26,-0.65, -1.89, -5.37, 1.93, 1.58, 7.15, repro,
2006-01-27,1.47, -1.90, -7.27, 1.94, 1.58, 7.16, repro,
2006-01-28,0.99, -1.57, -6.21, 1.95, 1.60, 7.25, repro,
2006-01-29,0.33, -1.59, -8.51, 1.96, 1.60, 7.28, repro,
2006-01-30,0.36, -1.96, -2.87, 2.00, 1.65, 7.44, repro,
2006-01-31,-1.18, -1.91, -3.87, 1.96, 1.59, 7.32, repro,
2006-02-01,0.79, -1.42, -0.46, 1.96, 1.59, 7.25, repro,
2006-02-02,-0.22, -3.41, 2.93, 1.97, 1.59, 7.31, repro,
2006-02-03,0.27, -2.91, -2.78, 1.97, 1.60, 7.33, repro,
2006-02-04,0.49, -2.57, -4.02, 1.96, 1.59, 7.32, repro,
2006-02-05,-0.26, -2.23, -5.74, 1.97, 1.59, 7.39, repro,
2006-02-06,-0.27, -1.62, -7.52, 1.95, 1.57, 7.31, repro,
2006-02-07,0.29, -1.52, -9.74, 1.97, 1.58, 7.35, repro,
2006-02-08,0.24, -1.21, -9.31, 1.96, 1.58, 7.36, repro,
2006-02-09,0.61, -1.91, -5.82, 2.06, 1.65, 7.69, repro,
2006-02-10,0.01, -1.80, -9.15, 2.09, 1.60, 7.71, repro,
2006-02-11,0.26, -2.10, -9.39, 1.97, 1.57, 7.35, repro,
2006-02-12,-0.20, -1.28, -11.95, 1.96, 1.56, 7.30, repro,
2006-02-13,-0.12, -1.36, -6.22, 1.98, 1.56, 7.33, repro,
2006-02-14,-0.61, -1.25, 3.33, 1.96, 1.57, 7.33, repro,
2006-02-15,-0.12, -4.25, -5.89, 1.97, 1.59, 7.43, repro,
2006-02-16,-0.22, -1.20, -4.05, 1.97, 1.57, 7.33, repro,
2006-02-17,-0.73, -1.66, -6.66, 1.96, 1.56, 7.28, repro,
2006-02-18,-1.02, -0.23, -5.82, 1.97, 1.57, 7.29, repro,
2006-02-19,0.65, -1.00, -5.91, 1.98, 1.59, 7.40, repro,
2006-02-20,0.28, -0.93, -3.44, 1.96, 1.59, 7.36, repro,
2006-02-21,1.34, -0.85, -0.69, 1.96, 1.58, 7.31, repro,
2006-02-22,1.13, -1.37, 3.52, 1.95, 1.58, 7.31, repro,
2006-02-23,0.50, -1.04, -1.64, 1.95, 1.58, 7.27, repro,
2006-02-24,-0.25, -1.25, -3.56, 1.96, 1.59, 7.31, repro,
2006-02-25,-0.00, -0.88, -3.95, 1.97, 1.60, 7.37, repro,
2006-02-26,-0.37, -1.87, -3.18, 1.99, 1.66, 7.53, repro,
2006-02-27,-0.54, -2.01, -1.63, 1.96, 1.60, 7.30, repro,
2006-02-28,-2.53, -3.82, 5.89, 2.03, 1.67, 7.46, repro,
2006-03-01,0.21, -0.23, -2.70, 2.03, 1.67, 7.44, repro,
2006-03-02,-0.12, -0.88, -2.47, 1.95, 1.60, 7.28, repro,
2006-03-03,-1.04, -2.04, -5.51, 2.04, 1.63, 7.66, repro,
2006-03-04,0.67, -1.04, -5.79, 1.94, 1.61, 7.31, repro,
2006-03-05,0.22, -2.18, -2.09, 1.95, 1.61, 7.32, repro,
2006-03-06,0.32, -0.45, -5.52, 1.95, 1.61, 7.31, repro,
2006-03-07,0.23, -0.68, -1.34, 1.97, 1.65, 7.33, repro,
2006-03-08,-0.04, -1.59, -6.01, 1.94, 1.60, 7.28, repro,
2006-03-09,-1.69, -2.36, 11.76, 1.97, 1.61, 7.38, repro,
2006-03-10,-0.35, -3.06, 6.95, 1.94, 1.61, 7.31, repro,
2006-03-11,0.76, -1.61, 4.37, 1.97, 1.62, 7.36, repro,
2006-03-12,-0.26, -2.29, -0.87, 1.97, 1.62, 7.28, repro,
2006-03-13,-0.11, -0.19, -3.89, 1.98, 1.62, 7.33, repro,
2006-03-14,-0.02, -1.02, 1.72, 1.99, 1.64, 7.43, repro,
2006-03-15,-0.49, -0.63, -0.58, 1.98, 1.64, 7.40, repro,
2006-03-16,-0.35, -2.50, -6.33, 2.03, 1.68, 7.56, repro,
2006-03-17,-0.30, -1.81, 3.51, 2.03, 1.67, 7.53, repro,
2006-03-18,-0.47, -1.18, -5.21, 1.96, 1.62, 7.22, repro,
2006-03-19,-1.40, -2.23, -5.24, 1.99, 1.69, 7.54, repro,
2006-03-20,-0.23, -1.98, 0.34, 1.97, 1.65, 7.36, repro,
2006-03-21,0.11, -1.56, -2.93, 1.97, 1.65, 7.41, repro,
2006-03-22,0.26, -2.23, -5.31, 1.98, 1.67, 7.49, repro,
2006-03-23,-0.18, -1.77, -6.45, 2.04, 1.67, 7.58, repro,
2006-03-24,-0.46, -0.83, -5.40, 2.03, 1.68, 7.57, repro,
2006-03-25,-0.45, -1.51, -4.07, 2.04, 1.68, 7.62, repro,
2006-03-26,1.42, -2.93, -1.32, 2.02, 1.67, 7.57, repro,
2006-03-27,0.69, -1.97, 1.89, 2.03, 1.69, 7.67, repro,
2006-03-28,0.15, -1.83, 5.20, 1.96, 1.64, 7.42, repro,
2006-03-29,-0.76, -2.03, 4.06, 1.91, 1.62, 7.25, repro,
2006-03-30,0.11, -2.01, -0.04, 1.92, 1.63, 7.32, repro,
2006-03-31,-0.58, -2.88, 1.93, 1.91, 1.62, 7.29, repro,
2006-04-01,0.55, -2.24, -5.75, 1.92, 1.62, 7.30, repro,
2006-04-02,0.33, -2.42, -3.58, 1.92, 1.63, 7.38, repro,
2006-04-03,0.52, -1.50, 5.94, 1.93, 1.61, 7.28, repro,
2006-04-04,0.40, -1.68, -1.85, 1.93, 1.62, 7.32, repro,
2006-04-05,-0.84, -2.04, 2.52, 1.96, 1.69, 7.67, repro,
2006-04-06,0.17, -3.15, 2.80, 1.95, 1.67, 7.52, repro,
2006-04-07,1.32, -2.86, -0.48, 2.07, 1.81, 8.00, repro,
2006-04-08,1.43, -2.73, -4.16, 2.04, 1.65, 7.72, repro,
2006-04-09,0.04, -2.60, -2.26, 1.96, 1.65, 7.56, repro,
2006-04-10,0.36, -2.41, -7.76, 1.91, 1.61, 7.33, repro,
2006-04-11,-0.77, -3.07, 3.65, 1.99, 1.65, 7.73, repro,
2006-04-12,-1.04, -2.77, -4.06, 1.99, 1.65, 7.70, repro,
2006-04-13,1.16, -2.30, 2.04, 1.91, 1.62, 7.29, repro,
2006-04-14,-0.96, -3.22, 5.52, 1.92, 1.60, 7.26, repro,
2006-04-15,-0.38, -0.76, -2.44, 1.98, 1.64, 7.46, repro,
2006-04-16,-0.02, -2.14, 6.41, 1.92, 1.63, 7.37, repro,
2006-04-17,-0.08, -1.81, 6.49, 1.92, 1.63, 7.39, repro,
2006-04-18,0.51, -2.87, -0.17, 1.93, 1.65, 7.50, repro,
2006-04-19,1.13, -2.28, -0.46, 1.92, 1.61, 7.33, repro,
2006-04-20,-0.38, -2.22, 2.70, 1.99, 1.73, 7.82, repro,
2006-04-21,-0.27, -3.30, 0.55, 1.96, 1.67, 7.63, repro,
2006-04-22,-0.18, -2.39, -0.83, 1.92, 1.63, 7.34, repro,
2006-04-23,-0.43, -2.31, 2.75, 1.93, 1.66, 7.46, repro,
2006-04-24,0.35, -2.96, 2.08, 1.93, 1.66, 7.46, repro,
2006-04-25,-0.20, -1.04, -3.01, 1.98, 1.74, 7.71, repro,
2006-04-26,-0.55, -3.60, -1.85, 1.94, 1.65, 7.41, repro,
2006-04-27,-0.68, -2.80, -2.84, 2.01, 1.68, 7.61, repro,
2006-04-28,-1.19, -1.95, -0.03, 2.04, 1.65, 7.59, repro,
2006-04-29,1.17, -2.97, -2.58, 1.96, 1.66, 7.48, repro,
2006-04-30,1.15, -2.20, -8.25, 1.92, 1.62, 7.38, repro,
2006-05-01,0.15, -3.23, -0.59, 1.92, 1.60, 7.26, repro,
2006-05-02,-0.57, -3.04, 1.65, 1.93, 1.61, 7.35, repro,
2006-05-03,-1.04, -2.67, 4.12, 1.94, 1.62, 7.41, repro,
2006-05-04,-0.82, -2.90, -1.21, 1.93, 1.62, 7.39, repro,
2006-05-05,0.77, -2.22, 1.58, 1.91, 1.63, 7.36, repro,
2006-05-06,0.58, -2.88, 1.12, 1.92, 1.60, 7.30, repro,
2006-05-07,0.46, -2.35, 0.06, 1.93, 1.62, 7.38, repro,
2006-05-08,-0.76, -2.55, -1.76, 1.94, 1.62, 7.42, repro,
2006-05-09,0.54, -3.15, 2.85, 2.00, 1.64, 7.58, repro,
2006-05-10,0.20, -2.18, 4.03, 1.91, 1.62, 7.36, repro,
2006-05-11,0.55, -2.72, 0.39, 1.91, 1.61, 7.35, repro,
2006-05-12,0.01, -2.70, 0.63, 1.92, 1.60, 7.31, repro,
2006-05-13,-0.80, -3.07, -1.43, 1.92, 1.62, 7.39, repro,
2006-05-14,-0.73, -3.48, 2.32, 1.98, 1.65, 7.52, repro,
2006-05-15,0.17, -2.04, -2.29, 1.92, 1.61, 7.34, repro,
2006-05-16,-1.51, -3.66, 0.98, 1.96, 1.66, 7.50, repro,
2006-05-17,0.58, -2.84, 5.91, 1.95, 1.65, 7.46, repro,
2006-05-18,-0.24, -2.55, 7.77, 2.01, 1.63, 7.60, repro,
2006-05-19,-0.67, -2.88, 2.44, 2.06, 1.68, 7.78, repro,
2006-05-20,-0.49, -3.90, 4.34, 2.02, 1.64, 7.62, repro,
2006-05-21,-0.52, -3.95, 0.08, 2.05, 1.66, 7.68, repro,
2006-05-22,-1.76, -2.48, 4.33, 2.02, 1.67, 7.62, repro,
2006-05-23,-0.16, -3.53, 3.15, 2.00, 1.62, 7.49, repro,
2006-05-24,-1.51, -3.09, 4.15, 2.02, 1.67, 7.72, repro,
2006-05-25,-0.71, -2.98, 5.93, 2.17, 1.74, 8.22, repro,
2006-05-26,-0.73, -2.93, 5.95, 2.06, 1.65, 7.76, repro,
2006-05-27,-2.83, -3.31, 14.30, 2.01, 1.64, 7.56, repro,
2006-05-28,-1.29, -1.42, 7.79, 2.00, 1.63, 7.50, repro,
2006-05-29,-0.25, -2.41, 2.46, 2.09, 1.75, 7.94, repro,
2006-05-30,0.42, -1.69, 3.79, 2.08, 1.68, 7.80, repro,
2006-05-31,-1.35, -2.45, 3.53, 2.07, 1.70, 7.80, repro,
2006-06-01,-0.70, -2.44, 3.19, 2.03, 1.66, 7.66, repro,
2006-06-02,-1.09, -2.56, 1.81, 2.15, 1.72, 7.95, repro,
2006-06-03,-1.43, -1.99, 5.85, 2.05, 1.65, 7.63, repro,
2006-06-04,-0.50, -1.50, 3.17, 2.06, 1.67, 7.72, repro,
2006-06-05,-0.53, -3.01, 3.67, 2.08, 1.69, 7.81, repro,
2006-06-06,-1.13, -1.74, 9.18, 2.05, 1.67, 7.69, repro,
2006-06-07,-1.18, -1.76, 0.04, 2.11, 1.71, 7.91, repro,
2006-06-08,-1.79, 0.40, -0.96, 2.06, 1.69, 7.72, repro,
2006-06-09,-1.51, -1.63, 4.57, 2.08, 1.70, 7.87, repro,
2006-06-10,-1.03, -2.37, 7.42, 2.00, 1.63, 7.57, repro,
2006-06-11,-1.32, -3.09, 7.89, 2.07, 1.70, 7.79, repro,
2006-06-12,-0.54, -1.81, 9.15, 2.07, 1.73, 7.81, repro,
2006-06-13,-1.07, -1.62, 7.37, 2.06, 1.66, 7.72, repro,
2006-06-14,-0.62, -3.20, 9.83, 1.99, 1.63, 7.49, repro,
2006-06-15,0.97, -0.99, 0.97, 2.00, 1.64, 7.59, repro,
2006-06-16,-0.74, -2.26, 11.63, 1.99, 1.63, 7.52, repro,
2006-06-17,-0.36, -1.68, 8.28, 2.01, 1.64, 7.58, repro,
2006-06-18,-1.15, -0.74, 7.17, 2.02, 1.67, 7.73, repro,
2006-06-19,-1.83, -2.15, 7.95, 2.02, 1.66, 7.71, repro,
2006-06-20,-1.02, -0.94, 4.35, 2.06, 1.72, 7.92, repro,
2006-06-21,-0.83, -1.74, 8.15, 2.05, 1.72, 7.88, repro,
2006-06-22,-0.55, -2.65, 5.32, 2.12, 1.79, 8.14, repro,
2006-06-23,-0.02, -2.82, 2.24, 2.02, 1.67, 7.75, repro,
2006-06-24,-1.23, -1.05, -0.69, 2.07, 1.71, 7.87, repro,
2006-06-25,-0.62, -2.13, 2.67, 2.02, 1.67, 7.77, repro,
2006-06-26,-0.50, -2.11, 2.24, 2.07, 1.75, 7.99, repro,
2006-06-27,-1.24, -2.14, 6.78, 2.12, 1.82, 8.18, repro,
2006-06-28,-0.97, -1.62, 4.51, 2.05, 1.72, 7.91, repro,
2006-06-29,-1.42, -2.43, 12.16, 1.99, 1.70, 7.72, repro,
2006-06-30,-1.63, -1.72, 5.16, 2.03, 1.67, 7.76, repro,
2006-07-01,-0.27, -2.31, 9.39, 2.03, 1.68, 7.82, repro,
2006-07-02,0.19, -1.93, 8.69, 2.03, 1.69, 7.86, repro,
2006-07-03,-0.70, -1.42, 4.86, 1.98, 1.64, 7.69, repro,
2006-07-04,0.88, -3.21, -0.12, 2.04, 1.69, 8.02, repro,
2006-07-05,-1.22, -1.25, 3.29, 2.03, 1.67, 7.89, repro,
2006-07-06,-0.03, -2.30, -0.16, 1.99, 1.64, 7.66, repro,
2006-07-07,-0.54, -1.65, -2.80, 2.07, 1.75, 8.08, repro,
2006-07-08,0.39, -5.34, 1.77, 2.07, 1.75, 8.05, repro,
2006-07-09,-0.61, -2.07, 2.93, 2.06, 1.74, 8.24, repro,
2006-07-10,-1.05, -1.56, -1.47, 2.10, 1.77, 8.21, repro,
2006-07-11,-1.12, -1.82, -0.30, 2.00, 1.63, 7.68, repro,
2006-07-12,-0.29, 0.21, 4.89, 2.00, 1.64, 7.70, repro,
2006-07-13,-0.78, -0.80, 0.53, 2.00, 1.65, 7.76, repro,
2006-07-14,-0.14, -0.59, 5.86, 1.99, 1.64, 7.73, repro,
2006-07-15,-0.60, -2.44, 4.37, 2.00, 1.64, 7.74, repro,
2006-07-16,-0.88, -1.98, 9.12, 1.99, 1.63, 7.67, repro,
2006-07-17,-2.40, 0.91, -4.21, 2.09, 1.75, 8.16, repro,
2006-07-18,-1.54, -1.67, 12.95, 1.93, 1.62, 7.44, repro,
2006-07-19,-0.89, -1.46, 5.17, 1.94, 1.63, 7.51, repro,
2006-07-20,-1.23, -0.81, 3.74, 1.94, 1.64, 7.46, repro,
2006-07-21,-1.47, -0.05, 3.80, 1.94, 1.65, 7.58, repro,
2006-07-22,-3.19, -2.24, 6.05, 2.09, 1.75, 8.20, repro,
2006-07-23,0.44, -0.85, 4.11, 1.96, 1.64, 7.54, repro,
2006-07-24,-0.18, -0.90, -2.14, 1.97, 1.68, 7.55, repro,
2006-07-25,-0.50, -2.24, 10.12, 1.96, 1.68, 7.52, repro,
2006-07-26,0.26, -2.50, 10.99, 1.96, 1.67, 7.51, repro,
2006-07-27,-0.05, -1.68, 0.77, 1.93, 1.61, 7.35, repro,
2006-07-28,-0.83, -0.06, 0.42, 1.97, 1.69, 7.54, repro,
2006-07-29,-0.22, -1.58, -4.07, 1.94, 1.62, 7.43, repro,
2006-07-30,0.09, -1.46, 6.65, 1.97, 1.67, 7.52, repro,
2006-07-31,-0.79, -0.32, 7.89, 1.96, 1.68, 7.55, repro,
2006-08-01,-0.39, -1.28, 4.13, 1.92, 1.61, 7.34, repro,
2006-08-02,-1.32, -1.59, 8.08, 1.95, 1.65, 7.59, repro,
2006-08-03,-0.36, 0.01, 2.57, 2.01, 1.73, 7.88, repro,
2006-08-04,-1.22, -1.37, 3.58, 2.03, 1.69, 7.81, repro,
2006-08-05,-0.03, -2.12, 1.11, 1.99, 1.71, 7.77, repro,
2006-08-06,-1.37, -0.24, 5.17, 2.03, 1.71, 8.01, repro,
2006-08-07,-1.35, -0.59, 0.73, 1.96, 1.66, 7.64, repro,
2006-08-08,-0.33, -2.09, 1.14, 1.94, 1.63, 7.45, repro,
2006-08-09,0.95, -0.46, 2.94, 1.95, 1.62, 7.43, repro,
2006-08-10,0.03, -2.03, 3.77, 1.93, 1.62, 7.42, repro,
2006-08-11,0.19, -1.79, 2.44, 1.93, 1.62, 7.41, repro,
2006-08-12,0.30, -0.23, 2.45, 1.94, 1.63, 7.44, repro,
2006-08-13,-0.54, -2.23, 11.45, 1.98, 1.68, 7.54, repro,
2006-08-14,-0.18, -1.68, 5.80, 1.99, 1.69, 7.63, repro,
2006-08-15,-0.24, -0.57, 6.53, 2.05, 1.70, 7.70, repro,
2006-08-16,-0.49, -1.45, 0.34, 1.97, 1.68, 7.55, repro,
2006-08-17,0.25, -0.45, 3.37, 1.96, 1.69, 7.52, repro,
2006-08-18,-0.32, -1.50, 1.19, 1.99, 1.73, 7.64, repro,
2006-08-19,-0.49, -1.80, -0.64, 1.93, 1.62, 7.37, repro,
2006-08-20,-0.03, -1.22, 0.77, 1.93, 1.61, 7.37, repro,
2006-08-21,-0.25, -1.94, -0.15, 1.93, 1.64, 7.43, repro,
2006-08-22,-0.02, -0.36, -1.01, 1.94, 1.66, 7.50, repro,
2006-08-23,-0.39, -1.55, 2.20, 1.94, 1.66, 7.44, repro,
2006-08-24,0.14, -1.80, 8.41, 1.97, 1.66, 7.52, repro,
2006-08-25,-0.50, -0.70, 7.77, 1.99, 1.69, 7.73, repro,
2006-08-26,0.41, -1.51, 4.76, 1.99, 1.71, 7.76, repro,
2006-08-27,-0.51, -1.25, 0.92, 2.00, 1.73, 7.84, repro,
2006-08-28,0.26, -1.44, 0.84, 1.99, 1.73, 7.82, repro,
2006-08-29,-0.58, -0.87, 3.61, 2.05, 1.81, 7.97, repro,
2006-08-30,-0.61, -1.31, 8.70, 2.08, 1.75, 8.08, repro,
2006-08-31,-0.25, -0.59, 6.01, 2.00, 1.73, 7.82, repro,
2006-09-01,0.35, 0.52, -0.68, 2.04, 1.76, 8.01, repro,
2006-09-02,-0.54, -0.53, -0.20, 1.99, 1.74, 7.88, repro,
2006-09-03,-0.23, -1.09, 4.79, 1.99, 1.73, 7.82, repro,
2006-09-04,-0.40, -1.24, -1.02, 2.08, 1.78, 8.10, repro,
2006-09-05,0.88, -1.12, -7.81, 2.17, 1.82, 8.48, repro,
2006-09-06,-0.63, -1.40, -3.69, 1.99, 1.73, 7.85, repro,
2006-09-07,-1.01, -3.80, 0.91, 2.11, 1.82, 8.33, repro,
2006-09-08,-1.47, -1.95, 3.68, 2.02, 1.78, 7.94, repro,
2006-09-09,0.53, -2.03, -1.56, 1.97, 1.68, 7.55, repro,
2006-09-10,-0.01, -0.82, 0.29, 1.98, 1.69, 7.61, repro,
2006-09-11,0.55, -0.69, -0.54, 1.98, 1.70, 7.67, repro,
2006-09-12,1.09, -1.55, 1.51, 1.97, 1.70, 7.62, repro,
2006-09-13,0.57, -1.13, 4.34, 1.96, 1.70, 7.60, repro,
2006-09-14,-0.36, -2.55, 6.92, 2.09, 1.78, 7.94, repro,
2006-09-15,-0.50, 0.43, 0.77, 2.06, 1.74, 7.98, repro,
2006-09-16,1.17, -0.94, 3.26, 1.95, 1.66, 7.52, repro,
2006-09-17,0.71, -1.53, 4.04, 1.94, 1.65, 7.48, repro,
2006-09-18,0.93, -1.14, 5.09, 1.94, 1.66, 7.53, repro,
2006-09-19,0.05, -1.86, 6.79, 1.93, 1.64, 7.38, repro,
2006-09-20,0.55, -1.03, 1.49, 1.97, 1.67, 7.64, repro,
2006-09-21,0.59, -1.40, 11.02, 1.98, 1.69, 7.62, repro,
2006-09-22,1.12, -0.23, 7.44, 2.07, 1.76, 7.97, repro,
2006-09-23,0.33, -1.47, 4.41, 2.04, 1.72, 7.80, repro,
2006-09-24,1.23, -1.00, -1.21, 2.13, 1.77, 8.26, repro,
2006-09-25,0.92, -1.13, 3.44, 2.14, 1.82, 8.15, repro,
2006-09-26,0.68, -0.60, -1.83, 2.03, 1.71, 7.74, repro,
2006-09-27,0.77, -0.99, -1.15, 2.09, 1.75, 8.12, repro,
2006-09-28,0.61, -2.03, 1.50, 2.03, 1.73, 7.81, repro,
2006-09-29,0.34, -2.17, 6.68, 2.06, 1.79, 8.04, repro,
2006-09-30,0.84, -1.78, 8.78, 2.01, 1.73, 7.74, repro,
2006-10-01,0.90, -1.47, 4.46, 1.98, 1.69, 7.64, repro,
2006-10-02,0.45, -0.01, 4.50, 2.05, 1.77, 7.86, repro,
2006-10-03,1.08, -1.92, -5.03, 2.08, 1.81, 8.04, repro,
2006-10-04,1.15, -0.94, 4.53, 2.02, 1.70, 7.76, repro,
2006-10-05,1.15, -2.14, 6.84, 2.02, 1.69, 7.84, repro,
2006-10-06,1.32, -3.32, 2.30, 2.01, 1.68, 7.76, repro,
2006-10-07,1.22, -2.26, -3.05, 2.09, 1.85, 8.40, repro,
2006-10-08,0.82, -1.52, -3.65, 2.06, 1.76, 8.12, repro,
2006-10-09,0.71, -3.11, -1.28, 2.11, 1.78, 8.24, repro,
2006-10-10,-0.21, -2.35, -0.65, 1.99, 1.70, 7.74, repro,
2006-10-11,-0.35, -2.85, 3.84, 2.01, 1.75, 7.85, repro,
2006-10-12,0.07, -2.40, 8.28, 1.99, 1.69, 7.67, repro,
2006-10-13,0.05, -0.98, 3.96, 2.02, 1.77, 8.05, repro,
2006-10-14,2.00, -2.24, -6.93, 1.97, 1.73, 7.85, repro,
2006-10-15,0.87, -2.13, 8.50, 1.98, 1.77, 7.68, repro,
2006-10-16,-1.04, 0.06, 7.08, 2.01, 1.74, 7.92, repro,
2006-10-17,1.98, -2.57, 10.66, 2.07, 1.77, 8.20, repro,
2006-10-18,1.95, -0.80, -2.25, 2.01, 1.74, 8.05, repro,
2006-10-19,0.79, -1.41, 2.05, 2.17, 1.80, 8.56, repro,
2006-10-20,0.22, -1.81, 5.18, 2.26, 2.03, 9.92, repro,
2006-10-21,-0.11, -2.74, 4.78, 2.15, 1.82, 8.59, repro,
2006-10-22,0.34, -2.82, 1.21, 1.95, 1.74, 7.77, repro,
2006-10-23,0.83, -2.00, -2.93, 2.14, 1.91, 8.60, repro,
2006-10-24,1.72, -2.52, -0.75, 2.12, 1.79, 8.38, repro,
2006-10-25,-0.14, -2.26, 7.54, 2.21, 1.89, 8.65, repro,
2006-10-26,1.43, -2.11, -0.29, 1.99, 1.79, 7.80, repro,
2006-10-27,1.09, -1.02, -3.80, 1.94, 1.77, 7.79, repro,
2006-10-28,-0.10, -1.45, 0.85, 2.12, 1.82, 8.51, repro,
2006-10-29,0.52, -1.43, 2.24, 1.96, 1.74, 7.74, repro,
2006-10-30,0.64, -1.74, 6.31, 1.90, 1.67, 7.45, repro,
2006-10-31,-0.34, -2.83, 3.91, 1.93, 1.70, 7.53, repro,
2006-11-01,0.06, -1.60, 5.40, 1.99, 1.81, 7.90, repro,
2006-11-02,0.02, -0.03, 0.74, 1.91, 1.69, 7.50, repro,
2006-11-03,0.07, -1.35, 4.31, 2.00, 1.82, 8.01, repro,
2006-11-04,1.23, -1.22, 1.81, 1.99, 1.74, 7.81, repro,
2006-11-05,1.07, -1.27, -3.29, 1.99, 1.73, 7.68, repro,
2006-11-06,0.28, -1.43, -0.02, 1.92, 1.70, 7.55, repro,
2006-11-07,1.04, -1.19, 0.55, 2.01, 1.80, 8.02, repro,
2006-11-08,0.91, -1.30, 8.45, 2.03, 1.77, 8.01, repro,
2006-11-09,0.25, -1.52, 7.22, 2.02, 1.80, 8.10, repro,
2006-11-10,0.87, -2.09, 0.27, 1.96, 1.68, 7.68, repro,
2006-11-11,0.01, -1.21, -2.72, 2.00, 1.73, 7.89, repro,
2006-11-12,0.56, -2.64, -1.20, 2.01, 1.76, 7.89, repro,
2006-11-13,1.85, -2.33, 0.29, 1.99, 1.73, 7.80, repro,
2006-11-14,0.21, -4.14, 11.91, 1.93, 1.67, 7.57, repro,
2006-11-15,1.12, -1.46, 0.04, 1.89, 1.64, 7.34, repro,
2006-11-16,-0.38, -1.39, 2.05, 1.90, 1.64, 7.37, repro,
2006-11-17,0.14, -2.68, 2.74, 1.90, 1.65, 7.42, repro,
2006-11-18,-0.46, -1.19, -4.52, 1.90, 1.65, 7.39, repro,
2006-11-19,1.27, -2.09, -6.62, 1.95, 1.71, 7.61, repro,
2006-11-20,0.14, -1.40, -3.44, 1.89, 1.64, 7.33, repro,
2006-11-21,0.83, -2.21, -1.54, 1.90, 1.65, 7.37, repro,
2006-11-22,0.49, -2.22, -0.99, 1.89, 1.65, 7.36, repro,
2006-11-23,0.32, -2.69, -1.76, 1.93, 1.69, 7.61, repro,
2006-11-24,0.56, -2.56, -0.53, 1.97, 1.73, 7.71, repro,
2006-11-25,0.42, -2.23, 2.44, 1.92, 1.66, 7.43, repro,
2006-11-26,-0.14, -2.12, 0.57, 1.93, 1.66, 7.46, repro,
2006-11-27,0.42, -0.34, -3.33, 1.93, 1.66, 7.46, repro,
2006-11-28,-3.31, 0.69, 3.45, 1.91, 1.67, 7.47, repro,
2006-11-29,-0.62, -1.84, 1.48, 1.91, 1.66, 7.42, repro,
2006-11-30,0.98, -1.55, -10.06, 1.90, 1.65, 7.39, repro,
2006-12-01,0.29, -1.40, -7.40, 1.90, 1.65, 7.36, repro,
2006-12-02,-0.02, -2.08, -8.99, 1.91, 1.67, 7.43, repro,
2006-12-03,-0.01, -2.01, -5.31, 1.91, 1.67, 7.46, repro,
2006-12-04,1.06, -2.33, -10.52, 1.95, 1.67, 7.51, repro,
2006-12-05,0.78, -1.71, -5.39, 1.97, 1.79, 7.68, repro,
2006-12-06,1.81, -1.15, -5.38, 1.98, 1.81, 7.75, repro,
2006-12-07,0.88, -2.65, -5.57, 1.94, 1.73, 7.56, repro,
2006-12-08,0.63, -1.92, -3.31, 1.93, 1.73, 7.54, repro,
2006-12-09,0.17, -2.21, -0.54, 2.09, 1.86, 8.13, repro,
2006-12-10,2.08, -3.76, 4.20, 1.98, 1.76, 7.71, repro,
2006-12-11,2.46, -2.25, -2.21, 1.89, 1.68, 7.38, repro,
2006-12-12,1.79, -2.18, -9.51, 2.03, 1.78, 7.95, repro,
2006-12-13,1.31, -2.34, -2.36, 1.98, 1.77, 7.90, repro,
2006-12-14,1.17, -2.27, -0.93, 1.89, 1.69, 7.45, repro,
2006-12-15,2.30, -2.70, -4.56, 1.99, 1.79, 7.86, repro,
2006-12-16,1.40, -2.27, -3.15, 1.98, 1.76, 7.70, repro,
2006-12-17,0.16, -2.96, -5.30, 1.96, 1.77, 7.78, repro,
2006-12-18,0.43, -1.87, -1.93, 2.19, 1.94, 8.76, repro,
2006-12-19,1.09, -1.94, -3.71, 2.06, 1.92, 8.27, repro,
2006-12-20,0.33, -2.56, -2.34, 2.08, 1.89, 8.25, repro,
2006-12-21,0.53, -2.38, -5.36, 1.92, 1.81, 7.63, repro,
2006-12-22,0.58, -2.51, -5.65, 2.05, 1.90, 8.21, repro,
2006-12-23,2.04, -1.49, -8.39, 1.96, 1.77, 7.81, repro,
2006-12-24,0.51, -1.13, -6.52, 1.88, 1.69, 7.45, repro,
2006-12-25,0.45, -2.26, -12.10, 1.96, 1.81, 7.71, repro,
2006-12-26,0.94, -2.23, 1.76, 2.05, 1.81, 8.11, repro,
2006-12-27,0.08, -3.65, 4.44, 2.02, 1.81, 8.04, repro,
2006-12-28,3.14, -1.08, 7.96, 2.20, 2.06, 8.94, repro,